Weather History for Sweetwater, TX

Change the Weather History Date:

Sunday, November 25, 2012

  Actual Average Record
Temperature  
Mean Temperature 62 °F -  
Max Temperature 77 °F 64 °F 86 °F (1965)
Min Temperature 48 °F 40 °F 20 °F (1993)
Degree Days  
Heating Degree Days 2    
Growing Degree Days 12 (Base 50)    
Moisture  
Dew Point 37 °F    
Average Humidity 43    
Maximum Humidity 58    
Minimum Humidity 21    
Precipitation  
Precipitation 0.00 in - - ()
Sea Level Pressure  
Sea Level Pressure 29.94 in    
Wind  
Wind Speed 16 mph (SSW)    
Max Wind Speed 23 mph    
Max Gust Speed 28 mph    
Visibility 10 miles    
Events      
Averages and records for this station are not official NWS values.
T = Trace of Precipitation, MM = Missing Value Source: NWS Daily Summary

Daily Weather History Graph

Daily Weather History Graph

Search for Another Location

Airport:

Trip Planner

Search our weather history database for the weather conditions in past years. The results will help you decide how hot, cold, wet, or windy it might be!

Date:

Astronomy

Nov. 25, 2012 Rise Set
Actual Time 7:20 AM CST 5:37 PM CST
Civil Twilight 6:54 AM CST 6:03 PM CST
Nautical Twilight 6:24 AM CST 6:33 PM CST
Astronomical Twilight 5:54 AM CST 7:03 PM CST
Moon 3:49 PM CST (11/25) 4:42 AM CST (11/25)
Length of Visible Light 11h 09m
Length of Day
10h 16m
Waxing Gibbous, 93% of the Moon is Illuminated
Nov 25
Waxing Gibbous
Nov 28
Full
Dec 6
Last Quarter
Dec 13
New
Dec 19
First Quarter

Hourly Weather History & Observations

Time (CST) Temp. Dew Point Humidity Pressure Visibility Wind Dir Wind Speed Gust Speed Precip Events Conditions
12:15 AM 53.6 °F 33.8 °F 47% 30.05 in 10.0 mi South 16.1 mph - N/A   Clear
12:35 AM 51.8 °F 33.8 °F 50% 30.04 in 10.0 mi South 15.0 mph - N/A   Clear
12:55 AM 51.8 °F 35.6 °F 54% 30.03 in 10.0 mi South 16.1 mph - N/A   Clear
1:15 AM 51.8 °F 35.6 °F 54% 30.03 in 10.0 mi South 17.3 mph - N/A   Clear
1:35 AM 51.8 °F 35.6 °F 54% 30.02 in 10.0 mi South 16.1 mph - N/A   Clear
1:55 AM 51.8 °F 35.6 °F 54% 30.02 in 10.0 mi South 13.8 mph - N/A   Clear
2:15 AM 51.8 °F 33.8 °F 50% 30.02 in 10.0 mi South 11.5 mph - N/A   Clear
2:35 AM 50.0 °F 33.8 °F 54% 30.01 in 10.0 mi SSW 11.5 mph - N/A   Clear
2:55 AM 50.0 °F 33.8 °F 54% 30.01 in 10.0 mi South 13.8 mph - N/A   Clear
3:15 AM 50.0 °F 33.8 °F 54% 29.99 in 10.0 mi South 16.1 mph - N/A   Clear
3:35 AM 50.0 °F 33.8 °F 54% 29.99 in 10.0 mi SSW 16.1 mph - N/A   Clear
3:55 AM 50.0 °F 33.8 °F 54% 29.99 in 10.0 mi SSW 16.1 mph - N/A   Clear
4:15 AM 50.0 °F 33.8 °F 54% 29.99 in 10.0 mi SSW 15.0 mph - N/A   Clear
4:35 AM 50.0 °F 33.8 °F 54% 29.98 in 10.0 mi SSW 16.1 mph 20.7 mph N/A   Clear
4:55 AM 50.0 °F 33.8 °F 54% 29.98 in 10.0 mi SSW 16.1 mph - N/A   Clear
5:15 AM 50.0 °F 33.8 °F 54% 29.98 in 10.0 mi SSW 16.1 mph - N/A   Clear
5:35 AM 50.0 °F 33.8 °F 54% 29.98 in 10.0 mi SSW 16.1 mph - N/A   Clear
5:55 AM 50.0 °F 33.8 °F 54% 29.98 in 10.0 mi SSW 16.1 mph - N/A   Clear
6:15 AM 50.0 °F 33.8 °F 54% 29.98 in 10.0 mi SSW 16.1 mph - N/A   Clear
6:35 AM 50.0 °F 33.8 °F 54% 29.98 in 10.0 mi SSW 16.1 mph 21.9 mph N/A   Clear
6:55 AM 50.0 °F 33.8 °F 54% 29.98 in 10.0 mi SSW 15.0 mph - N/A   Clear
7:15 AM 50.0 °F 33.8 °F 54% 29.98 in 10.0 mi SSW 16.1 mph - N/A   Clear
7:35 AM 48.2 °F 33.8 °F 58% 29.99 in 10.0 mi SSW 16.1 mph - N/A   Clear
7:55 AM 50.0 °F 35.6 °F 58% 29.99 in 10.0 mi SSW 16.1 mph - N/A   Clear
8:15 AM 51.8 °F 35.6 °F 54% 29.99 in 10.0 mi SSW 17.3 mph - N/A   Clear
8:35 AM 53.6 °F 35.6 °F 51% 29.99 in 10.0 mi SSW 17.3 mph 21.9 mph N/A   Clear
8:55 AM 53.6 °F 35.6 °F 51% 29.99 in 10.0 mi SSW 20.7 mph - N/A   Clear
9:15 AM 55.4 °F 37.4 °F 51% 29.99 in 10.0 mi SSW 19.6 mph 25.3 mph N/A   Clear
9:35 AM 59.0 °F 37.4 °F 45% 29.99 in 10.0 mi SSW 23.0 mph 26.5 mph N/A   Clear
9:55 AM 60.8 °F 37.4 °F 42% 30.00 in 10.0 mi SSW 19.6 mph 26.5 mph N/A   Clear
10:15 AM 60.8 °F 37.4 °F 42% 29.99 in 10.0 mi SSW 21.9 mph 27.6 mph N/A   Clear
10:35 AM 62.6 °F 39.2 °F 42% 29.99 in 10.0 mi SSW 18.4 mph 25.3 mph N/A   Clear
10:55 AM 64.4 °F 39.2 °F 40% 29.99 in 10.0 mi SSW 17.3 mph 25.3 mph N/A   Clear
11:15 AM 64.4 °F 39.2 °F 40% 29.98 in 10.0 mi SSW 19.6 mph 26.5 mph N/A   Clear
11:35 AM 68.0 °F 39.2 °F 35% 29.98 in 10.0 mi SW 18.4 mph 24.2 mph N/A   Clear
11:55 AM 68.0 °F 39.2 °F 35% 29.97 in 10.0 mi SSW 18.4 mph 24.2 mph N/A   Clear
12:15 PM 69.8 °F 39.2 °F 33% 29.95 in 10.0 mi SSW 17.3 mph 23.0 mph N/A   Clear
12:35 PM 69.8 °F 39.2 °F 33% 29.94 in 10.0 mi SSW 17.3 mph 21.9 mph N/A   Clear
12:55 PM 71.6 °F 39.2 °F 31% 29.93 in 10.0 mi SSW 18.4 mph 23.0 mph N/A   Clear
1:15 PM 73.4 °F 37.4 °F 27% 29.91 in 10.0 mi SSW 19.6 mph 24.2 mph N/A   Clear
1:35 PM 73.4 °F 37.4 °F 27% 29.90 in 10.0 mi SSW 18.4 mph 24.2 mph N/A   Clear
1:55 PM 75.2 °F 35.6 °F 24% 29.89 in 10.0 mi SSW 18.4 mph 24.2 mph N/A   Clear
2:15 PM 77.0 °F 35.6 °F 22% 29.89 in 10.0 mi SSW 18.4 mph - N/A   Clear
2:35 PM 77.0 °F 33.8 °F 21% 29.88 in 10.0 mi SW 17.3 mph 21.9 mph N/A   Clear
2:55 PM 77.0 °F 33.8 °F 21% 29.88 in 10.0 mi SSW 12.7 mph 21.9 mph N/A   Clear
3:15 PM 77.0 °F 33.8 °F 21% 29.87 in 10.0 mi SSW 16.1 mph 19.6 mph N/A   Clear
3:35 PM 77.0 °F 33.8 °F 21% 29.87 in 10.0 mi SSW 16.1 mph - N/A   Clear
3:55 PM 77.0 °F 35.6 °F 22% 29.87 in 10.0 mi SSW 15.0 mph 20.7 mph N/A   Clear
4:15 PM 77.0 °F 35.6 °F 22% 29.87 in 10.0 mi SSW 13.8 mph 21.9 mph N/A   Clear
4:35 PM 77.0 °F 33.8 °F 21% 29.87 in 10.0 mi SSW 16.1 mph 19.6 mph N/A   Clear
4:55 PM 75.2 °F 33.8 °F 22% 29.86 in 10.0 mi SSW 13.8 mph - N/A   Clear
5:15 PM 73.4 °F 33.8 °F 23% 29.86 in 10.0 mi SSW 11.5 mph - N/A   Clear
5:35 PM 71.6 °F 33.8 °F 25% 29.87 in 10.0 mi SSW 8.1 mph - N/A   Clear
5:55 PM 69.8 °F 35.6 °F 28% 29.86 in 10.0 mi SSW 9.2 mph - N/A   Clear
6:15 PM 68.0 °F 35.6 °F 30% 29.87 in 10.0 mi SSW 8.1 mph - N/A   Clear
6:55 PM 68.0 °F 33.8 °F 28% 29.88 in 10.0 mi SSW 10.4 mph - N/A   Clear
7:15 PM 64.4 °F 33.8 °F 32% 29.88 in 10.0 mi South 10.4 mph - N/A   Clear
7:35 PM 62.6 °F 33.8 °F 34% 29.88 in 10.0 mi South 10.4 mph - N/A   Clear
7:55 PM 59.0 °F 35.6 °F 42% 29.88 in 10.0 mi South 10.4 mph - N/A   Clear
8:15 PM 62.6 °F 41.0 °F 45% 29.89 in 10.0 mi South 12.7 mph - N/A   Clear
8:35 PM 62.6 °F 42.8 °F 48% 29.89 in 10.0 mi South 12.7 mph - N/A   Clear
8:55 PM 62.6 °F 42.8 °F 48% 29.89 in 10.0 mi South 12.7 mph - N/A   Clear
9:15 PM 62.6 °F 42.8 °F 48% 29.90 in 10.0 mi South 12.7 mph - N/A   Clear
9:35 PM 62.6 °F 42.8 °F 48% 29.90 in 10.0 mi South 15.0 mph - N/A   Clear
9:55 PM 60.8 °F 42.8 °F 52% 29.90 in 10.0 mi SSW 12.7 mph - N/A   Clear
10:15 PM 60.8 °F 44.6 °F 55% 29.90 in 10.0 mi SSW 15.0 mph - N/A   Clear
10:35 PM 60.8 °F 44.6 °F 55% 29.90 in 10.0 mi South 15.0 mph - N/A   Clear
10:55 PM 60.8 °F 44.6 °F 55% 29.90 in 10.0 mi South 15.0 mph - N/A   Clear
11:15 PM 60.8 °F 44.6 °F 55% 29.90 in 10.0 mi SSW 15.0 mph - N/A   Clear
11:35 PM 60.8 °F 44.6 °F 55% 29.91 in 10.0 mi SSW 15.0 mph - N/A   Clear
11:55 PM 60.8 °F 44.6 °F 55% 29.91 in 10.0 mi SSW 15.0 mph - N/A   Clear